Вернуться в каталог

NOAA 16 DEB

АктивенPO
NORAD 41086·DEBRIS·🇺🇸 United States

Запущен Sep 21, 2000 с Vandenberg Space Force Base

Loading…

Ближайшие Пролёты (ближайшие 24 часа)

TLE

СвежийSource: Space-Track

Эпоха: Sep 13, 2026, 11:26 UTC

1 41086U 00055AV  26256.47665185  .00009017  00000-0  14501-2 0  9992
2 41086  98.8186  79.0659 0026538  58.5649 301.8145 14.71584470564714

Отслеживайте NOAA 16 DEB в реальном времени с AllMySat

Download on the App Store